Batman, Turkey

7:00 AM +03 on March 29, 2017 (GMT +0300)
Batman Air Base

Weather History for LTCJ - September, 2013

Change the Weather History Date:

Monday, September 16, 2013

  Actual Average (LTCC) Record (LTCC)
Temperature  
Mean Temperature 76 °F -  
Max Temperature 93 °F 89 °F 97 °F (2015)
Min Temperature 59 °F 59 °F 51 °F (1997)
Cooling Degree Days 11    
Growing Degree Days 26 (Base 50)    
Moisture  
Dew Point 37 °F    
Average Humidity 29    
Maximum Humidity 55    
Minimum Humidity 10    
Precipitation  
Precipitation 0.00 in - - ()
Sea Level Pressure  
Sea Level Pressure 29.72 in    
Wind  
Wind Speed 5 mph ()    
Max Wind Speed 10 mph    
Max Gust Speed -    
Visibility 3.2 miles    
Events      
Averages and records for this station are not official NWS values.
T = Trace of Precipitation, MM = Missing Value Source: Averaged Metar Reports

Daily Weather History Graph

Daily Weather History Graph

Search for Another Location

Airport or City:

Trip Planner

Search our weather history database for the weather conditions in past years. The results will help you decide how hot, cold, wet, or windy it might be!

Date:

Astronomy

Sep. 16, 2013 Rise Set
Actual Time 5:58 AM EEST 6:22 PM EEST
Civil Twilight 5:31 AM EEST 6:48 PM EEST
Nautical Twilight 5:00 AM EEST 7:19 PM EEST
Astronomical Twilight 4:29 AM EEST 7:50 PM EEST
Moon 4:14 PM EEST (9/16) 2:22 AM EEST (9/16)
Length of Visible Light 13h 16m
Length of Day
12h 23m
Waxing Gibbous, 88% of the Moon is Illuminated
Sep 16
Waxing Gibbous
Sep 19
Full
Sep 27
Last Quarter
Oct 5
New
Oct 12
First Quarter

Hourly Weather History & Observations

Time (EEST) Temp. Dew Point Humidity Pressure Visibility Wind Dir Wind Speed Gust Speed Precip Events Conditions
12:20 AM 68.0 °F 35.6 °F 30% 29.74 in - NE 6.9 mph - N/A   Clear
12:50 AM 68.0 °F 35.6 °F 30% 29.71 in - NNE 5.8 mph - N/A   Clear
1:20 AM 66.2 °F 39.2 °F 37% 29.74 in - NE 6.9 mph - N/A   Clear
1:26 AM 66.2 °F 41.0 °F 40% 29.74 in 4.3 mi ENE 5.8 mph - N/A   Smoke
1:50 AM 68.0 °F 37.4 °F 33% 29.74 in 3.1 mi NNE 5.8 mph - N/A   Smoke
2:20 AM 64.4 °F 41.0 °F 42% 29.74 in 3.1 mi Variable 2.3 mph - N/A   Smoke
2:50 AM 62.6 °F 39.2 °F 42% 29.74 in 2.5 mi NE 4.6 mph - N/A   Smoke
3:20 AM 60.8 °F 42.8 °F 52% 29.71 in 3.1 mi NNE 5.8 mph - N/A   Smoke
3:50 AM 60.8 °F 41.0 °F 48% 29.71 in 3.1 mi NE 6.9 mph - N/A   Smoke
4:20 AM 59.0 °F 41.0 °F 51% 29.71 in 3.1 mi NE 6.9 mph - N/A   Smoke
4:50 AM 59.0 °F 42.8 °F 55% 29.71 in 3.1 mi NNE 8.1 mph - N/A   Smoke
5:20 AM 59.0 °F 42.8 °F 55% 29.71 in 2.5 mi NNE 8.1 mph - N/A   Smoke
5:50 AM 59.0 °F 42.8 °F 55% 29.71 in 1.9 mi NE 9.2 mph - N/A   Smoke
6:20 AM 59.0 °F 42.8 °F 55% 29.74 in 1.2 mi North 3.5 mph - N/A   Smoke
6:50 AM 60.8 °F 44.6 °F 55% 29.74 in 1.7 mi WNW 3.5 mph - N/A   Smoke
7:20 AM 64.4 °F 44.6 °F 49% 29.74 in 1.9 mi Calm Calm - N/A   Smoke
7:50 AM 66.2 °F 44.6 °F 46% 29.74 in 2.2 mi Variable 2.3 mph - N/A   Smoke
8:20 AM 69.8 °F 42.8 °F 38% 29.74 in 2.5 mi SW 4.6 mph - N/A   Smoke
8:50 AM 73.4 °F 42.8 °F 33% 29.74 in 3.7 mi SW 4.6 mph - N/A   Unknown
9:20 AM 77.0 °F 42.8 °F 29% 29.77 in 4.3 mi SSW 4.6 mph - N/A   Unknown
9:50 AM 80.6 °F 44.6 °F 28% 29.77 in 5.6 mi West 4.6 mph - N/A   Unknown
10:20 AM 84.2 °F 42.8 °F 23% 29.74 in 5.6 mi Variable 2.3 mph - N/A   Unknown
10:50 AM 86.0 °F 44.6 °F 23% 29.74 in 5.6 mi Variable 4.6 mph - N/A   Unknown
11:20 AM 87.8 °F 44.6 °F 22% 29.74 in - North 3.5 mph - N/A   Clear
11:50 AM 89.6 °F 37.4 °F 16% 29.71 in - SE 4.6 mph - N/A   Clear
12:20 PM 91.4 °F 35.6 °F 14% 29.71 in - Variable 4.6 mph - N/A   Clear
12:50 PM 91.4 °F 33.8 °F 13% 29.71 in - South 4.6 mph - N/A   Clear
1:20 PM 91.4 °F 35.6 °F 14% 29.71 in - Variable 8.1 mph - N/A   Clear
1:50 PM 91.4 °F 35.6 °F 14% 29.68 in - Variable 5.8 mph - N/A   Clear
2:20 PM 93.2 °F 33.8 °F 12% 29.68 in - SSW 8.1 mph - N/A   Clear
2:50 PM 93.2 °F 32.0 °F 11% 29.68 in - WSW 8.1 mph - N/A   Clear
3:20 PM 93.2 °F 33.8 °F 12% 29.68 in - SW 8.1 mph - N/A   Clear
3:50 PM 91.4 °F 35.6 °F 14% 29.68 in - WSW 10.4 mph - N/A   Clear
4:20 PM 91.4 °F 32.0 °F 12% 29.68 in - West 10.4 mph - N/A   Clear
4:50 PM 91.4 °F 30.2 °F 11% 29.68 in - WSW 8.1 mph - N/A   Clear
5:20 PM 89.6 °F 26.6 °F 10% 29.68 in - WSW 9.2 mph - N/A   Clear
5:50 PM 87.8 °F 24.8 °F 10% 29.68 in - SW 6.9 mph - N/A   Clear
6:20 PM 84.2 °F 26.6 °F 12% 29.68 in - SW 5.8 mph - N/A   Clear
6:50 PM 80.6 °F 24.8 °F 13% 29.68 in - SSW 3.5 mph - N/A   Clear
7:20 PM 80.6 °F 26.6 °F 14% 29.71 in - Calm Calm - N/A   Clear
7:50 PM 75.2 °F 26.6 °F 17% 29.71 in - Calm Calm - N/A   Clear
8:20 PM 71.6 °F 28.4 °F 20% 29.71 in - Calm Calm - N/A   Clear
8:50 PM 71.6 °F 32.0 °F 23% 29.74 in - Calm Calm - N/A   Clear
9:20 PM 71.6 °F 30.2 °F 22% 29.74 in - Calm Calm - N/A   Clear
9:50 PM 66.2 °F 37.4 °F 35% 29.74 in - North 6.9 mph - N/A   Clear
10:20 PM 66.2 °F 37.4 °F 35% 29.74 in - NNE 9.2 mph - N/A   Clear
10:50 PM 64.4 °F 35.6 °F 34% 29.74 in - NNE 6.9 mph - N/A   Clear
11:20 PM 66.2 °F 33.8 °F 30% 29.74 in - North 4.6 mph - N/A   Clear
11:50 PM 62.6 °F 37.4 °F 39% 29.74 in - NE 4.6 mph - N/A   Clear